Salem, OR

8:56 PM PST on February 13, 2016 (GMT -0800)
McNary

Weather History for KSLE - February, 2014

Change the Weather History Date:

Saturday, February 1, 2014

  Actual Average Record
Temperature  
Mean Temperature 42 °F 42 °F  
Max Temperature 51 °F 50 °F 63 °F (1934)
Min Temperature 32 °F 35 °F 0 °F (1950)
Degree Days  
Heating Degree Days 23 23  
Month to date heating degree days 23 23  
Since 1 July heating degree days 2681 2650  
Cooling Degree Days 0 0  
Month to date cooling degree days 0 0  
Year to date cooling degree days 0 0  
Moisture  
Dew Point 35 °F    
Average Humidity 72    
Maximum Humidity 92    
Minimum Humidity 52    
Precipitation  
Precipitation 0.01 in 0.16 in 2.99 in (1937)
Month to date precipitation 0.01 0.16  
Year to date precipitation 1.89 6.12  
Sea Level Pressure  
Sea Level Pressure 30.12 in    
Wind  
Wind Speed 3 mph (South)    
Max Wind Speed 10 mph    
Max Gust Speed 12 mph    
Visibility 10 miles    
Events Rain    
T = Trace of Precipitation, MM = Missing Value Source: NWS Daily Summary

Daily Weather History Graph

Daily Weather History Graph

Search for Another Location

Airport or City:

Trip Planner

Search our weather history database for the weather conditions in past years. The results will help you decide how hot, cold, wet, or windy it might be!

Date:

Astronomy

Feb. 01, 2014 Rise Set
Actual Time 7:31 AM PST 5:20 PM PST
Civil Twilight 7:00 AM PST 5:51 PM PST
Nautical Twilight 6:25 AM PST 6:26 PM PST
Astronomical Twilight 5:50 AM PST 7:01 PM PST
Moon 8:16 AM PST (2/1) 8:11 PM PST (2/1)
Length of Visible Light 10h 51m
Length of Day
9h 48m
Waxing Crescent, 5% of the Moon is Illuminated
Feb 1
Waxing Crescent
Feb 6
First Quarter
Feb 14
Full
Feb 22
Last Quarter
Mar 1
New

Hourly Weather History & Observations

Time (PST) Temp. Windchill Dew Point Humidity Pressure Visibility Wind Dir Wind Speed Gust Speed Precip Events Conditions
12:56 AM 41.0 °F 38.0 °F 37.9 °F 89% 30.18 in 10.0 mi South 4.6 mph - N/A   Overcast
1:56 AM 42.1 °F 36.6 °F 39.0 °F 89% 30.19 in 10.0 mi South 9.2 mph - 0.00 in Rain Light Rain
2:56 AM 41.0 °F 35.8 °F 37.9 °F 89% 30.19 in 10.0 mi SSE 8.1 mph - 0.01 in   Overcast
3:56 AM 37.9 °F 34.4 °F 36.0 °F 93% 30.19 in 10.0 mi South 4.6 mph - N/A   Partly Cloudy
4:56 AM 39.0 °F 35.7 °F 36.0 °F 89% 30.19 in 10.0 mi South 4.6 mph - N/A   Overcast
5:56 AM 39.0 °F 34.0 °F 36.0 °F 89% 30.18 in 10.0 mi South 6.9 mph - N/A   Overcast
6:56 AM 37.0 °F 32.4 °F 34.0 °F 89% 30.18 in 10.0 mi SSE 5.8 mph - N/A   Mostly Cloudy
7:56 AM 36.0 °F 32.1 °F 34.0 °F 93% 30.19 in 10.0 mi South 4.6 mph - N/A   Scattered Clouds
8:56 AM 39.9 °F - 37.9 °F 93% 30.19 in 10.0 mi Calm Calm - N/A   Overcast
9:56 AM 43.0 °F 40.3 °F 39.0 °F 86% 30.19 in 10.0 mi SSE 4.6 mph - N/A   Overcast
10:56 AM 46.0 °F - 39.0 °F 76% 30.18 in 10.0 mi Calm Calm - N/A   Mostly Cloudy
11:56 AM 46.9 °F - 37.0 °F 68% 30.15 in 10.0 mi SW 4.6 mph - N/A   Scattered Clouds
12:56 PM 48.0 °F - 35.1 °F 61% 30.12 in 10.0 mi South 4.6 mph - N/A   Mostly Cloudy
1:56 PM 50.0 °F - 35.1 °F 57% 30.10 in 10.0 mi Variable 4.6 mph - N/A   Mostly Cloudy
2:56 PM 50.0 °F - 34.0 °F 54% 30.09 in 10.0 mi Calm Calm - N/A   Mostly Cloudy
3:56 PM 50.0 °F - 34.0 °F 54% 30.08 in 10.0 mi Calm Calm - N/A   Scattered Clouds
4:56 PM 48.0 °F - 35.1 °F 61% 30.07 in 10.0 mi NNW 4.6 mph - N/A   Clear
5:56 PM 45.0 °F 42.6 °F 34.0 °F 65% 30.05 in 10.0 mi NNE 4.6 mph - N/A   Clear
6:56 PM 37.0 °F - 33.1 °F 86% 30.04 in 10.0 mi Calm Calm - N/A   Clear
7:56 PM 36.0 °F 33.3 °F 32.0 °F 86% 30.03 in 10.0 mi WNW 3.5 mph - N/A   Clear
8:56 PM 34.0 °F - 30.9 °F 89% 30.04 in 10.0 mi Calm Calm - N/A   Clear
9:56 PM 34.0 °F - 30.9 °F 89% 30.03 in 10.0 mi Calm Calm - N/A   Scattered Clouds
10:56 PM 33.1 °F - 30.0 °F 89% 30.02 in 10.0 mi Calm Calm - N/A   Overcast
11:56 PM 36.0 °F - 33.1 °F 89% 30.01 in 10.0 mi Calm Calm - N/A   Overcast